Time,TemperatureF,DewpointF,PressureIn,WindDirection,WindDirectionDegrees,WindSpeedMPH,WindSpeedGustMPH,Humidity,HourlyPrecipIn,Conditions,Clouds,dailyrainin,SoftwareType,DateUTC
2013-06-24 00:01:00,76.1,69.9,30.13,West,270,0.0,0.0,81,0.00,,,0.00,WUHU216HW,2013-06-24 04:01:00,
2013-06-24 00:06:00,76.1,69.9,30.13,West,270,0.0,0.0,81,0.00,,,0.00,WUHU216HW,2013-06-24 04:06:00,
2013-06-24 00:29:00,75.6,69.8,30.14,SSE,158,0.0,0.0,82,0.00,,,0.00,WUHU216HW,2013-06-24 04:29:00,
2013-06-24 00:34:00,75.6,69.8,30.14,SSE,158,0.0,0.0,82,0.00,,,0.00,WUHU216HW,2013-06-24 04:34:00,
2013-06-24 00:59:00,75.2,69.8,30.13,SSE,158,0.0,0.0,83,0.00,,,0.00,WUHU216HW,2013-06-24 04:59:00,
2013-06-24 01:04:00,75.2,69.8,30.13,SSE,158,0.0,0.0,83,0.00,,,0.00,WUHU216HW,2013-06-24 05:04:00,
2013-06-24 01:29:00,74.7,69.6,30.14,WSW,248,0.0,0.0,84,0.00,,,0.00,WUHU216HW,2013-06-24 05:29:00,
2013-06-24 01:34:00,74.7,69.6,30.14,WSW,248,0.0,0.0,84,0.00,,,0.00,WUHU216HW,2013-06-24 05:34:00,
2013-06-24 02:00:00,74.3,69.2,30.14,SE,135,0.2,0.2,84,0.00,,,0.00,WUHU216HW,2013-06-24 06:00:00,
2013-06-24 02:05:00,74.3,69.2,30.14,SE,135,0.2,0.2,84,0.00,,,0.00,WUHU216HW,2013-06-24 06:05:00,
2013-06-24 02:29:00,74.0,68.9,30.14,SE,135,0.0,0.0,84,0.00,,,0.00,WUHU216HW,2013-06-24 06:29:00,
2013-06-24 02:34:00,74.0,68.9,30.14,SE,135,0.0,0.0,84,0.00,,,0.00,WUHU216HW,2013-06-24 06:34:00,
2013-06-24 03:00:00,73.8,68.7,30.14,SSE,158,0.0,0.0,84,0.00,,,0.00,WUHU216HW,2013-06-24 07:00:00,
2013-06-24 03:05:00,73.8,68.7,30.14,SSE,158,0.0,0.0,84,0.00,,,0.00,WUHU216HW,2013-06-24 07:05:00,
2013-06-24 03:29:00,73.6,68.9,30.14,NNW,338,0.0,0.0,85,0.00,,,0.00,WUHU216HW,2013-06-24 07:29:00,
2013-06-24 03:34:00,73.6,68.9,30.14,NNW,338,0.0,0.0,85,0.00,,,0.00,WUHU216HW,2013-06-24 07:34:00,
2013-06-24 03:59:00,73.6,69.2,30.14,NE,45,0.0,0.0,86,0.00,,,0.00,WUHU216HW,2013-06-24 07:59:00,
2013-06-24 04:05:00,73.6,69.2,30.14,NE,45,0.0,0.0,86,0.00,,,0.00,WUHU216HW,2013-06-24 08:05:00,
2013-06-24 04:29:00,73.4,69.0,30.14,SSE,158,0.0,0.0,86,0.00,,,0.00,WUHU216HW,2013-06-24 08:29:00,
2013-06-24 04:30:00,73.4,69.0,30.14,SSE,158,0.0,0.0,86,0.00,,,0.00,WUHU216HW,2013-06-24 08:30:00,
2013-06-24 04:35:00,73.4,69.0,30.14,SSE,158,0.0,0.0,86,0.00,,,0.00,WUHU216HW,2013-06-24 08:35:00,
2013-06-24 04:59:00,73.4,69.0,30.14,SSE,158,0.0,0.0,86,0.00,,,0.00,WUHU216HW,2013-06-24 08:59:00,
2013-06-24 05:00:00,73.4,69.0,30.14,SSE,158,0.0,0.0,86,0.00,,,0.00,WUHU216HW,2013-06-24 09:00:00,
2013-06-24 05:05:00,73.4,69.0,30.14,SSE,158,0.0,0.0,86,0.00,,,0.00,WUHU216HW,2013-06-24 09:05:00,
2013-06-24 05:29:00,73.6,69.6,30.13,SE,135,0.0,0.0,87,0.00,,,0.00,WUHU216HW,2013-06-24 09:29:00,
2013-06-24 05:34:00,73.6,69.6,30.13,SE,135,0.0,0.0,87,0.00,,,0.00,WUHU216HW,2013-06-24 09:34:00,
2013-06-24 05:40:00,73.6,69.6,30.13,SE,135,0.0,0.0,87,0.00,,,0.00,WUHU216HW,2013-06-24 09:40:00,
2013-06-24 05:59:00,73.8,69.8,30.14,ESE,113,0.0,0.0,87,0.00,,,0.00,WUHU216HW,2013-06-24 09:59:00,
2013-06-24 06:04:00,73.8,69.8,30.14,ESE,113,0.0,0.0,87,0.00,,,0.00,WUHU216HW,2013-06-24 10:04:00,
2013-06-24 06:29:00,73.8,69.8,30.14,SE,135,0.0,0.0,87,0.00,,,0.00,WUHU216HW,2013-06-24 10:29:00,
2013-06-24 06:30:00,73.8,69.8,30.14,SE,135,0.0,0.0,87,0.00,,,0.00,WUHU216HW,2013-06-24 10:30:00,
2013-06-24 06:34:00,73.8,69.8,30.14,SE,135,0.0,0.0,87,0.00,,,0.00,WUHU216HW,2013-06-24 10:34:00,
2013-06-24 06:59:00,73.8,69.8,30.14,SE,135,0.0,0.0,87,0.00,,,0.00,WUHU216HW,2013-06-24 10:59:00,
2013-06-24 07:05:00,73.8,69.8,30.14,SE,135,0.0,0.0,87,0.00,,,0.00,WUHU216HW,2013-06-24 11:05:00,
2013-06-24 07:29:00,74.2,70.1,30.14,SE,135,0.0,0.0,87,0.00,,,0.00,WUHU216HW,2013-06-24 11:29:00,
2013-06-24 07:34:00,74.2,70.1,30.14,SE,135,0.0,0.0,87,0.00,,,0.00,WUHU216HW,2013-06-24 11:34:00,
2013-06-24 07:59:00,74.7,70.7,30.15,SE,135,0.4,0.4,87,0.00,,,0.00,WUHU216HW,2013-06-24 11:59:00,
2013-06-24 08:05:00,74.7,70.7,30.15,SE,135,0.4,0.4,87,0.00,,,0.00,WUHU216HW,2013-06-24 12:05:00,
2013-06-24 08:29:00,75.2,71.2,30.15,West,270,0.2,0.2,87,0.00,,,0.00,WUHU216HW,2013-06-24 12:29:00,
2013-06-24 08:35:00,75.2,71.2,30.15,West,270,0.2,0.2,87,0.00,,,0.00,WUHU216HW,2013-06-24 12:35:00,
2013-06-24 09:00:00,76.0,71.2,30.15,West,270,0.7,0.7,85,0.00,,,0.00,WUHU216HW,2013-06-24 13:00:00,
2013-06-24 09:05:00,76.0,71.2,30.15,West,270,0.7,0.7,85,0.00,,,0.00,WUHU216HW,2013-06-24 13:05:00,
2013-06-24 09:30:00,76.7,71.8,30.16,West,270,0.4,0.4,85,0.00,,,0.00,WUHU216HW,2013-06-24 13:30:00,
2013-06-24 09:35:00,76.7,71.8,30.16,West,270,0.4,0.4,85,0.00,,,0.00,WUHU216HW,2013-06-24 13:35:00,
2013-06-24 09:59:00,77.4,71.8,30.16,SSE,158,0.9,0.9,83,0.00,,,0.00,WUHU216HW,2013-06-24 13:59:00,
2013-06-24 10:04:00,77.4,71.8,30.16,SSE,158,0.9,0.9,83,0.00,,,0.00,WUHU216HW,2013-06-24 14:04:00,
2013-06-24 10:09:00,77.4,71.8,30.16,SSE,158,0.9,0.9,83,0.00,,,0.00,WUHU216HW,2013-06-24 14:09:00,
2013-06-24 10:29:00,78.3,72.0,30.16,SE,135,0.9,0.9,81,0.00,,,0.00,WUHU216HW,2013-06-24 14:29:00,
2013-06-24 10:34:00,78.3,72.0,30.16,SE,135,0.9,0.9,81,0.00,,,0.00,WUHU216HW,2013-06-24 14:34:00,
2013-06-24 10:40:00,78.3,72.0,30.16,SE,135,0.9,0.9,81,0.00,,,0.00,WUHU216HW,2013-06-24 14:40:00,
2013-06-24 10:59:00,79.6,72.9,30.16,SE,135,0.4,0.4,80,0.00,,,0.00,WUHU216HW,2013-06-24 14:59:00,
2013-06-24 11:05:00,79.6,72.9,30.16,SE,135,0.4,0.4,80,0.00,,,0.00,WUHU216HW,2013-06-24 15:05:00,
2013-06-24 11:29:00,81.0,74.0,30.16,SW,225,0.2,0.2,79,0.00,,,0.00,WUHU216HW,2013-06-24 15:29:00,
2013-06-24 11:34:00,81.0,74.0,30.16,SW,225,0.2,0.2,79,0.00,,,0.00,WUHU216HW,2013-06-24 15:34:00,
2013-06-24 11:59:00,82.3,74.3,30.15,South,180,0.0,0.0,77,0.00,,,0.00,WUHU216HW,2013-06-24 15:59:00,
2013-06-24 12:00:00,82.3,74.3,30.15,South,180,0.0,0.0,77,0.00,,,0.00,WUHU216HW,2013-06-24 16:00:00,
2013-06-24 12:05:00,82.3,74.3,30.15,South,180,0.0,0.0,77,0.00,,,0.00,WUHU216HW,2013-06-24 16:05:00,
2013-06-24 12:29:00,82.3,73.5,30.14,North,0,0.2,0.2,75,0.00,,,0.00,WUHU216HW,2013-06-24 16:29:00,
2013-06-24 12:34:00,82.3,73.5,30.14,North,0,0.2,0.2,75,0.00,,,0.00,WUHU216HW,2013-06-24 16:34:00,
2013-06-24 12:39:00,82.3,73.5,30.14,North,0,0.2,0.2,75,0.00,,,0.00,WUHU216HW,2013-06-24 16:39:00,
2013-06-24 12:59:00,81.9,74.0,30.14,SE,135,0.7,0.7,77,0.00,,,0.00,WUHU216HW,2013-06-24 16:59:00,
2013-06-24 13:05:00,81.9,74.0,30.14,SE,135,0.7,0.7,77,0.00,,,0.00,WUHU216HW,2013-06-24 17:05:00,
2013-06-24 13:29:00,82.8,74.4,30.12,North,0,0.9,0.9,76,0.00,,,0.00,WUHU216HW,2013-06-24 17:29:00,
2013-06-24 13:35:00,82.8,74.4,30.12,North,0,0.9,0.9,76,0.00,,,0.00,WUHU216HW,2013-06-24 17:35:00,
2013-06-24 13:40:00,82.8,74.4,30.12,North,0,0.9,0.9,76,0.00,,,0.00,WUHU216HW,2013-06-24 17:40:00,
2013-06-24 13:59:00,83.9,75.1,30.11,East,90,1.1,1.1,75,0.00,,,0.00,WUHU216HW,2013-06-24 17:59:00,
2013-06-24 14:04:00,83.9,75.1,30.11,East,90,1.1,1.1,75,0.00,,,0.00,WUHU216HW,2013-06-24 18:04:00,
2013-06-24 14:09:00,83.9,75.1,30.11,East,90,1.1,1.1,75,0.00,,,0.00,WUHU216HW,2013-06-24 18:09:00,
2013-06-24 14:30:00,85.1,75.5,30.10,East,90,1.3,1.3,73,0.00,,,0.00,WUHU216HW,2013-06-24 18:30:00,
2013-06-24 14:35:00,85.1,75.5,30.10,East,90,1.3,1.3,73,0.00,,,0.00,WUHU216HW,2013-06-24 18:35:00,
2013-06-24 14:59:00,84.2,74.6,30.09,South,180,0.0,0.0,73,0.00,,,0.00,WUHU216HW,2013-06-24 18:59:00,
2013-06-24 15:04:00,84.2,74.6,30.09,South,180,0.0,0.0,73,0.00,,,0.00,WUHU216HW,2013-06-24 19:04:00,
2013-06-24 15:10:00,84.2,74.6,30.09,South,180,0.0,0.0,73,0.00,,,0.00,WUHU216HW,2013-06-24 19:10:00,
2013-06-24 15:29:00,86.6,76.2,30.07,SSE,158,0.9,0.9,71,0.00,,,0.00,WUHU216HW,2013-06-24 19:29:00,
2013-06-24 15:35:00,86.6,76.2,30.07,SSE,158,0.9,0.9,71,0.00,,,0.00,WUHU216HW,2013-06-24 19:35:00,
2013-06-24 15:59:00,89.1,75.8,30.08,NW,315,1.3,1.3,65,0.00,,,0.00,WUHU216HW,2013-06-24 19:59:00,
2013-06-24 16:04:00,89.1,75.8,30.08,NW,315,1.3,1.3,65,0.00,,,0.00,WUHU216HW,2013-06-24 20:04:00,
2013-06-24 16:29:00,88.6,74.9,30.08,SE,135,0.9,0.9,64,0.00,,,0.00,WUHU216HW,2013-06-24 20:29:00,
2013-06-24 16:34:00,88.6,74.9,30.08,SE,135,0.9,0.9,64,0.00,,,0.00,WUHU216HW,2013-06-24 20:34:00,
2013-06-24 17:00:00,87.5,74.7,30.06,SSE,158,0.9,0.9,66,0.00,,,0.00,WUHU216HW,2013-06-24 21:00:00,
2013-06-24 17:05:00,87.5,74.7,30.06,SSE,158,0.9,0.9,66,0.00,,,0.00,WUHU216HW,2013-06-24 21:05:00,
2013-06-24 17:29:00,85.9,73.6,30.06,NW,315,1.1,1.1,67,0.00,,,0.00,WUHU216HW,2013-06-24 21:29:00,
2013-06-24 17:30:00,85.9,73.6,30.06,NW,315,1.1,1.1,67,0.00,,,0.00,WUHU216HW,2013-06-24 21:30:00,
2013-06-24 17:35:00,85.9,73.6,30.06,NW,315,1.1,1.1,67,0.00,,,0.00,WUHU216HW,2013-06-24 21:35:00,
2013-06-24 18:00:00,85.3,73.6,30.05,SE,135,1.1,1.1,68,0.00,,,0.00,WUHU216HW,2013-06-24 22:00:00,
2013-06-24 18:05:00,85.3,73.6,30.05,SE,135,1.1,1.1,68,0.00,,,0.00,WUHU216HW,2013-06-24 22:05:00,
2013-06-24 18:29:00,84.2,73.0,30.04,WSW,248,1.1,1.1,69,0.00,,,0.00,WUHU216HW,2013-06-24 22:29:00,
2013-06-24 18:34:00,84.2,73.0,30.04,WSW,248,1.1,1.1,69,0.00,,,0.00,WUHU216HW,2013-06-24 22:34:00,
2013-06-24 18:59:00,83.7,72.9,30.06,South,180,1.1,1.1,70,0.00,,,0.00,WUHU216HW,2013-06-24 22:59:00,
2013-06-24 19:00:00,83.7,72.9,30.06,South,180,1.1,1.1,70,0.00,,,0.00,WUHU216HW,2013-06-24 23:00:00,
2013-06-24 19:05:00,83.7,72.9,30.06,South,180,1.1,1.1,70,0.00,,,0.00,WUHU216HW,2013-06-24 23:05:00,
2013-06-24 19:29:00,83.0,72.6,30.06,South,180,0.7,0.7,71,0.00,,,0.00,WUHU216HW,2013-06-24 23:29:00,
2013-06-24 19:35:00,83.0,72.6,30.06,South,180,0.7,0.7,71,0.00,,,0.00,WUHU216HW,2013-06-24 23:35:00,
2013-06-24 19:59:00,82.3,71.9,30.06,SW,225,1.1,1.1,71,0.00,,,0.00,WUHU216HW,2013-06-24 23:59:00,
2013-06-24 20:00:00,82.3,71.9,30.06,SW,225,1.1,1.1,71,0.00,,,0.00,WUHU216HW,2013-06-25 00:00:00,
2013-06-24 20:05:00,82.3,71.9,30.06,SW,225,1.1,1.1,71,0.00,,,0.00,WUHU216HW,2013-06-25 00:05:00,
2013-06-24 20:30:00,81.4,71.1,30.05,ENE,68,0.2,0.2,71,0.00,,,0.00,WUHU216HW,2013-06-25 00:30:00,
2013-06-24 20:35:00,81.4,71.1,30.05,ENE,68,0.2,0.2,71,0.00,,,0.00,WUHU216HW,2013-06-25 00:35:00,
2013-06-24 20:59:00,80.5,71.0,30.07,SE,135,0.7,0.7,73,0.00,,,0.00,WUHU216HW,2013-06-25 00:59:00,
2013-06-24 21:05:00,80.5,71.0,30.07,SE,135,0.7,0.7,73,0.00,,,0.00,WUHU216HW,2013-06-25 01:05:00,
2013-06-24 21:29:00,79.9,70.9,30.06,SW,225,0.0,0.0,74,0.00,,,0.00,WUHU216HW,2013-06-25 01:29:00,
2013-06-24 21:30:00,79.9,70.9,30.06,SW,225,0.0,0.0,74,0.00,,,0.00,WUHU216HW,2013-06-25 01:30:00,
2013-06-24 21:35:00,79.9,70.9,30.06,SW,225,0.0,0.0,74,0.00,,,0.00,WUHU216HW,2013-06-25 01:35:00,
2013-06-24 21:59:00,79.2,70.6,30.07,SSE,158,0.4,0.4,75,0.00,,,0.00,WUHU216HW,2013-06-25 01:59:00,
2013-06-24 22:05:00,79.2,70.6,30.07,SSE,158,0.4,0.4,75,0.00,,,0.00,WUHU216HW,2013-06-25 02:05:00,
2013-06-24 22:29:00,78.8,70.2,30.07,West,270,0.4,0.4,75,0.00,,,0.00,WUHU216HW,2013-06-25 02:29:00,
2013-06-24 22:34:00,78.8,70.2,30.07,West,270,0.4,0.4,75,0.00,,,0.00,WUHU216HW,2013-06-25 02:34:00,
2013-06-24 22:40:00,78.8,70.2,30.07,West,270,0.4,0.4,75,0.00,,,0.00,WUHU216HW,2013-06-25 02:40:00,
2013-06-24 22:59:00,78.3,70.1,30.08,SE,135,0.0,0.0,76,0.00,,,0.00,WUHU216HW,2013-06-25 02:59:00,
2013-06-24 23:04:00,78.3,70.1,30.08,SE,135,0.0,0.0,76,0.00,,,0.00,WUHU216HW,2013-06-25 03:04:00,
2013-06-24 23:10:00,78.3,70.1,30.08,SE,135,0.0,0.0,76,0.00,,,0.00,WUHU216HW,2013-06-25 03:10:00,
2013-06-24 23:30:00,77.8,69.9,30.09,SSW,203,0.0,0.0,77,0.00,,,0.00,WUHU216HW,2013-06-25 03:30:00,
2013-06-24 23:35:00,77.8,69.9,30.09,SSW,203,0.0,0.0,77,0.00,,,0.00,WUHU216HW,2013-06-25 03:35:00,
2013-06-24 23:59:00,77.2,69.9,30.09,SSW,203,0.4,0.4,78,0.00,,,0.00,WUHU216HW,2013-06-25 03:59:00,